This demonstration page uses our WeatherBlox Daily Observations layout. Learn more.

Left ArrowRight Arrow

31.31129, -92.44514

Hourly Observations for December 21, 2015

Temp ( °F °C ) Dew Point ( °F °C ) Humidity (%) Winds ( mph kmh ) Pressure ( in mb ) Visibility ( mi km ) Precip ( " mm )
12:53 am 00:53 Cloudy 60 15.6 55 12.8 84 84 SE 5 7 30.11 1020 10 16 0.00 0.00
1:25 am 01:25 Cloudy 60 15.6 55 12.8 84 84 ESE 6 9 30.09 1019 10 16 0.00 0.00
1:53 am 01:53 Cloudy 60 15.6 56 13.3 86 86 SE 7 11 30.08 1019 10 16 0.00 0.00
2:53 am 02:53 Mostly Cloudy 60 15.6 56 13.3 86 86 ESE 8 13 30.07 1018 10 16 0.00 0.00
3:38 am 03:38 Cloudy with Light Rain 59 15 57 13.9 93 93 SSE 8 13 30.06 1018 3 4 0.04 1.02
3:45 am 03:45 Cloudy with Light Rain 59 15 57 13.9 93 93 SE 7 11 30.06 1018 5 8 0.05 1.27
3:53 am 03:53 Cloudy with Light Rain 59 15 58 14.4 96 96 SE 7 11 30.06 1018 7 11 0.05 1.27
4:41 am 04:41 Cloudy 59 15 58 14.4 96 96 SE 7 11 30.06 1018 10 16 0.00 0.03
4:53 am 04:53 Cloudy 59 15 58 14.4 96 96 ESE 7 11 30.05 1018 9 14 0.00 0.03
5:04 am 05:04 Cloudy 59 15 58 14.4 96 96 ESE 7 11 30.03 1017 9 14 0.00 0.00
5:53 am 05:53 Cloudy 60 15.6 59 15 96 96 SE 16 26 30.03 1017 9 14 0.00 0.00
6:25 am 06:25 Partly Cloudy 60 15.6 58 14.4 93 93 SE 6 9 30.03 1017 9 14 0.00 0.00
6:46 am 06:46 Mostly Cloudy 60 15.6 59 15 96 96 SE 7 11 30.03 1017 8 13 0.00 0.00
6:53 am 06:53 Cloudy 60 15.6 59 15 96 96 SE 9 15 30.04 1017 8 13 0.00 0.00
7:10 am 07:10 Cloudy 60 15.6 60 15.6 100 100 SE 7 11 30.03 1017 7 11 0.00 0.00
7:53 am 07:53 Cloudy with Light Rain 61 16.1 60 15.6 97 97 SE 8 13 30.05 1018 5 8 0.00 0.03
8:11 am 08:11 Cloudy with Light Rain 61 16.1 60 15.6 97 97 SE 7 11 30.03 1017 5 8 0.00 0.03
8:53 am 08:53 Cloudy with Light Rain 62 16.7 61 16.1 96 96 SE 9 15 30.05 1018 7 11 0.01 0.25
9:00 am 09:00 Cloudy 62 16.7 61 16.1 96 96 SE 9 15 30.03 1017 7 11 0.00 0.03
9:53 am 09:53 Cloudy with Light Rain 63 17.2 62 16.7 97 97 SSE 8 13 30.05 1018 5 8 0.01 0.25
10:11 am 10:11 Cloudy with Heavy Rain 63 17.2 62 16.7 97 97 SSE 8 13 30.03 1017 2 3 0.05 1.27
10:30 am 10:30 Cloudy with Light Rain 63 17.2 63 17.2 100 100 SE 8 13 30.03 1017 3 5 0.19 4.83
10:53 am 10:53 Cloudy with Mist and Fog 64 17.8 63 17.2 96 96 SE 7 11 30.03 1017 4 6 0.19 4.83
11:20 am 11:20 Cloudy with Light Rain 64 17.8 64 17.8 100 100 SE 9 15 30.00 1016 4 6 0.01 0.25
11:29 am 11:29 Cloudy with Light Rain 64 17.8 64 17.8 100 100 SE 8 13 30.00 1016 3 4 0.02 0.51
11:38 am 11:38 Cloudy with Light Rain 64 17.8 64 17.8 100 100 SSE 9 15 30.00 1016 7 11 0.02 0.51
11:53 am 11:53 Cloudy with Light Rain 64 17.8 64 17.8 100 100 SE 7 11 30.00 1016 7 11 0.02 0.51
12:01 pm 12:01 Cloudy 65 18.3 64 17.8 97 97 SE 8 13 29.97 1015 7 11 0.00 0.03
12:23 pm 12:23 Cloudy with Light Rain 66 18.9 65 18.3 96 96 SSE 9 15 29.97 1015 8 13 0.00 0.03
12:49 pm 12:49 Cloudy with Light Rain 66 19 66 19 100 100 SSE 8 13 29.97 1015 8 13 0.01 0.25
12:53 pm 12:53 Cloudy with Light Rain 66 18.9 66 18.9 100 100 SE 8 13 29.96 1015 7 11 0.01 0.25
1:53 pm 13:53 Cloudy with Rain 67 19.4 67 19.4 100 100 SE 5 7 29.94 1014 3 5 0.11 2.79
2:30 pm 14:30 Cloudy with Rain 67 19.4 67 19.4 100 100 E 5 7 29.91 1013 3 4 0.08 2.03
2:38 pm 14:38 Cloudy with Heavy Rain 67 19.4 67 19.4 100 100 Calm 29.91 1013 1 2 0.18 4.57
2:40 pm 14:40 Cloudy with Nearby Thunderstorms 67 19.4 67 19.4 100 100 Calm 29.91 1013 1 1 0.21 5.33
2:49 pm 14:49 Cloudy with Nearby Thunderstorms 66 19 66 19 100 100 N 3 6 29.91 1013 1 1 0.26 6.60
2:53 pm 14:53 Cloudy with Nearby Thunderstorms 67 19.4 67 19.4 100 100 N 5 7 29.92 1013 1 2 0.27 6.86
3:01 pm 15:01 Cloudy with Rain 67 19.4 67 19.4 100 100 E 5 7 29.91 1013 1 2 0.01 0.25
3:12 pm 15:12 Cloudy with Light Rain 67 19.4 67 19.4 100 100 E 9 15 29.91 1013 3 5 0.03 0.76
3:20 pm 15:20 Cloudy with Thunderstorms 67 19.4 67 19.4 100 100 ESE 9 15 29.88 1012 4 6 0.03 0.76
3:27 pm 15:27 Cloudy with Strong Thunderstorms 67 19.4 67 19.4 100 100 ENE 5 7 29.91 1013 2 3 0.09 2.29
3:30 pm 15:30 Cloudy with Strong Thunderstorms 67 19.4 67 19.4 100 100 E 8 13 29.91 1013 1 1 0.23 5.84
3:40 pm 15:40 Cloudy with Strong Thunderstorms 67 19.4 67 19.4 100 100 ESE 9 15 29.91 1013 0 0 1.05 26.67
3:50 pm 15:50 Cloudy with Thunderstorms 68 20 68 20 100 100 VRB 6 9 29.88 1012 1 2 1.08 27.43
3:53 pm 15:53 Cloudy with Thunderstorms 68 20 68 20 100 100 SSE 8 13 29.91 1013 4 6 1.08 27.43
4:26 pm 16:26 Cloudy with Thunderstorms 68 20 67 19.4 96 96 SSW 5 7 29.91 1013 4 6 0.04 1.02
4:41 pm 16:41 Cloudy with Nearby Thunderstorms 68 20 67 19.4 96 96 Calm 29.91 1013 10 16 0.04 1.02
4:48 pm 16:48 Cloudy with Light Rain 68 20 66 19 94 94 Calm 29.91 1013 10 16 0.04 1.02
4:53 pm 16:53 Cloudy with Light Rain 68 20 67 19.4 96 96 Calm 29.91 1013 9 14 0.05 1.27
5:05 pm 17:05 Cloudy with Light Rain 67 19.4 67 19.4 100 100 Calm 29.91 1013 8 13 0.00 0.03
5:26 pm 17:26 Cloudy 67 19.4 67 19.4 100 100 Calm 29.88 1012 10 16 0.00 0.03
5:53 pm 17:53 Cloudy with Nearby Thunderstorms 68 20 67 19.4 96 96 E 3 6 29.90 1013 10 16 0.00 0.03
5:55 pm 17:55 Cloudy with Thunderstorms 68 20 68 20 100 100 Calm 29.88 1012 10 16 0.00 0.00
6:03 pm 18:03 Cloudy with Thunderstorms 68 20 68 20 100 100 Calm 29.88 1012 10 16 0.00 0.00
6:10 pm 18:10 Cloudy with Nearby Thunderstorms 67 19.4 67 19.4 100 100 E 3 6 29.88 1012 10 16 0.00 0.00
6:28 pm 18:28 Cloudy with Nearby Thunderstorms 67 19.4 67 19.4 100 100 SE 6 9 29.88 1012 9 14 0.00 0.00
6:49 pm 18:49 Cloudy with Nearby Thunderstorms 66 19 66 19 100 100 ESE 6 9 29.88 1012 7 11 0.00 0.00
6:53 pm 18:53 Cloudy with Mist and Fog 67 19.4 67 19.4 100 100 SE 5 7 29.90 1013 6 10 0.00 0.00
7:26 pm 19:26 Cloudy with Mist and Fog 67 19.4 67 19.4 100 100 Calm 29.88 1012 5 8 0.00 0.03
7:39 pm 19:39 Mostly Cloudy with Mist and Fog 66 18.9 66 18.9 100 100 SE 5 7 29.88 1012 5 8 0.00 0.03
7:46 pm 19:46 Mostly Cloudy with Mist and Fog 67 19.4 67 19.4 100 100 SSE 5 7 29.91 1013 6 10 0.00 0.03
7:53 pm 19:53 Mostly Cloudy with Mist and Fog 67 19.4 67 19.4 100 100 SSE 6 9 29.91 1013 6 10 0.00 0.03
8:06 pm 20:06 Cloudy with Mist and Fog 68 20 68 20 100 100 S 5 7 29.91 1013 6 10 0.00 0.00
8:53 pm 20:53 Cloudy with Mist and Fog 68 20 68 20 100 100 SSE 7 11 29.91 1013 5 8 0.00 0.03
9:19 pm 21:19 Cloudy with Mist and Fog 67 19.4 67 19.4 100 100 S 6 9 29.91 1013 4 6 0.00 0.00
9:24 pm 21:24 Cloudy with Mist and Fog 68 20 68 20 100 100 SSW 7 11 29.91 1013 4 6 0.00 0.00
9:38 pm 21:38 Cloudy with Light Rain 68 20 68 20 100 100 W 5 7 29.91 1013 6 10 0.01 0.25
9:53 pm 21:53 Cloudy 68 20 68 20 100 100 SSW 7 11 29.91 1013 8 13 0.01 0.25
10:11 pm 22:11 Cloudy with Mist and Fog 68 20 68 20 100 100 Calm 29.91 1013 6 10 0.00 0.00
10:20 pm 22:20 Cloudy with Mist and Fog 68 20 68 20 100 100 Calm 29.91 1013 5 8 0.00 0.00
10:53 pm 22:53 Cloudy with Mist and Fog 68 20 68 20 100 100 Calm 29.91 1013 4 6 0.00 0.00
11:01 pm 23:01 Cloudy with Rain 67 19.4 67 19.4 100 100 WNW 6 9 29.91 1013 3 4 0.01 0.25
11:16 pm 23:16 Cloudy with Light Rain 67 19.4 67 19.4 100 100 WNW 6 9 29.91 1013 3 5 0.02 0.51
11:46 pm 23:46 Cloudy with Mist and Fog 67 19.4 67 19.4 100 100 W 5 7 29.91 1013 5 8 0.02 0.51
11:53 pm 23:53 Mostly Cloudy with Mist and Fog 67 19.4 67 19.4 100 100 W 5 7 29.91 1013 4 6 0.02 0.51

Powered by AerisWeather